Lakeside 5K

Back to 2013 Road Races

2013 Road Race #2

2013-03-10, Penticton, 5.0 km
# Name City Age GP CP Time Pace
1 John Machuga Kelowna M30-34 0:15:56 03:11
2 Eddie Smith Penticton M30-34 0:16:21 03:16
3 Hans Aabye Merritt M35-39 0:16:23 03:16
4 David Matheson Penticton M40-44 4 0:17:40 03:32
5 Hector Carlos Penticton M40-44 5 0:17:50 03:34
6 Sergio Pio Penticton M45-49 6 0:17:53 03:34
7 Frank Phipps Grand Forks M40-44 7 0:17:55 03:35
8 Doug Alward Chilliwack M55-59 8 0:18:04 03:36
9 Wade Carlson Penticton M20-29 9 0:18:14 03:38
10 Warren Ellis Salmon Arm M35-39 10 0:18:26 03:41
11 Jessica Hannah Kelowna F30-34 0:18:28 03:41
12 Cameron Egan Kelowna M20-29 11 0:18:40 03:44
13 Timothy Mundall Salmon Arm M30-34 12 0:18:40 03:44
14 Glynis Sim Canoe F01-15 0:18:41 03:44
15 Aart Van Kooy Peachland M45-49 13 0:18:45 03:45
16 Ben Bruch Kelowna M45-49 14 0:18:47 03:45
17 Nikki Reiter Kelowna F20-29 0:18:52 03:46
18 Eric Malmsten West Kelowna M50-54 15 0:18:54 03:46
19 Hannah Bennison Vernon F01-15 4 0:18:58 03:47
20 Bruce Wark Merritt M60-64 16 0:19:10 03:50
21 Ken Byl Kelowna M45-49 17 4 0:19:12 03:50
22 Randy Werger Kelowna M50-54 18 0:19:20 03:52
23 Michael Kascak Penticton M50-54 19 0:19:25 03:53
24 Emilyn Sim Canoe F16-19 5 0:19:34 03:54
25 Richard Dueck Kelowna M40-44 20 4 0:19:37 03:55
26 Scott Macdougall Kelowna M35-39 21 0:19:38 03:55
27 Doug Mcmechan Kelowna M50-54 22 4 0:19:43 03:56
28 Emmet Smith Kelowna M16-19 23 0:19:51 03:58
29 Jason Rodine Kelowna M30-34 24 4 0:19:54 03:58
30 Neil Ladd West Kelowna M30-34 25 5 0:19:55 03:59
31 Chris Stenberg Penticton M30-34 26 6 0:19:57 03:59
32 Darin Johaneson Vernon M40-44 27 5 0:20:11 04:02
33 Blake Laven Penticton M35-39 28 4 0:20:23 04:04
34 Matthew Jackson Penticton M50-54 29 5 0:20:28 04:05
35 Lance Zablotney Penticton M55-59 30 0:20:37 04:07
36 John Wilson Vernon M35-39 31 5 0:20:42 04:08
37 Charlie Fornelli Penticton M30-34 32 7 0:20:45 04:09
38 Dirk-Tiger Handke Kelowna M45-49 33 5 0:20:50 04:10
39 Michelle Blackburne West Kelowna F16-19 6 0:20:52 04:10
40 Tiffany Fowler Kelowna F40-44 7 0:20:55 04:11
41 Alea Stockton Kelowna F16-19 8 0:21:01 04:12
42 Trisha Metro Kelowna F30-34 9 0:21:03 04:12
43 Tristan Knoll Summerland M16-19 34 0:21:03 04:12
44 Jason Mackenzie Penticton M40-44 35 6 0:21:10 04:14
45 Matt Stephenson Kaleden M35-39 36 6 0:21:11 04:14
46 Daniel Howarth Princeton M20-29 37 0:21:14 04:14
47 Vicente Pulido Penticton M16-19 38 0:21:18 04:15
48 Josh Holland Penticton M01-15 39 0:21:19 04:15
49 Delilah Topic Kelowna F30-34 10 0:21:25 04:17
50 Seija Deleenheer Vernon F35-39 11 0:21:37 04:19
51 Christopher Hills Summerland M20-29 40 4 0:21:39 04:19
52 Marie-Josee Bedard Merritt F40-44 12 0:21:41 04:20
53 Gerry Naito Vernon M55-59 41 0:21:42 04:20
54 Gordon Flett Vancouver M50-54 42 6 0:21:46 04:21
55 Katie Bowyer Penticton F20-29 13 0:21:48 04:21
56 Shanda Hill Vernon F30-34 14 4 0:21:48 04:21
57 Carol Winn Coldstream F40-44 15 0:21:52 04:22
58 Misty Palm Kamloops F35-39 16 0:22:08 04:25
59 Tyler Luscombe Penticton M20-29 43 5 0:22:14 04:26
60 Mike Braid Summerland M60-64 44 0:22:21 04:28
61 Victoria Frost Kelowna F20-29 17 0:22:25 04:29
62 Andrew Guest Penticton M30-34 45 8 0:22:26 04:29
63 Terry Heidt Kelowna M30-34 46 9 0:22:28 04:29
64 Curtis Wallace Vernon M30-34 47 10 0:22:30 04:30
65 Lynda Proce Coldstream F55-59 18 0:22:33 04:30
66 Teddy Boyko Kelowna M65-69 48 0:22:35 04:31
67 Bill Faulkner Kaleden M65-69 49 0:22:36 04:31
68 Jon Padgett Penticton M40-44 50 7 0:22:40 04:32
69 Peter Pollhammer Kelowna M70-74 51 0:22:45 04:33
70 Mike Porter Summerland M40-44 52 8 0:22:46 04:33
71 Melinda Williamson Penticton F50-54 19 0:22:46 04:33
72 Ken Hilverda Kelowna M40-44 53 9 0:22:47 04:33
73 Alyssa Byl Kelowna F20-29 20 4 0:22:49 04:33
74 Krystyna Dunham Penticton F30-34 21 5 0:22:53 04:34
75 Chantel Weston Summerland F35-39 22 0:22:57 04:35
76 Lorinda Christian Kelowna F50-54 23 0:23:01 04:36
77 Travis Kascak Penticton M01-15 54 0:23:02 04:36
78 Stephen Joyce Coldstream M50-54 55 7 0:23:07 04:37
79 Emily Millard Kelowna F20-29 24 5 0:23:07 04:37
80 Islam Mohamed Kelowna M40-44 56 10 0:23:08 04:37
81 Robin Levant Oliver F40-44 25 4 0:23:10 04:38
82 Caroline Goodjohn Naramata F30-34 26 6 0:23:13 04:38
83 Alan Davies Penticton M60-64 57 0:23:19 04:39
84 Keith Burton West Kelowna M65-69 58 0:23:21 04:40
85 Mike Boven Summerland M45-49 59 6 0:23:26 04:41
86 Richard Sim Canoe M60-64 60 4 0:23:30 04:42
87 Jeff Berrie Kelowna M55-59 61 4 0:23:41 04:44
88 Al Davidson Naramata M55-59 62 5 0:23:47 04:45
89 Bill Head Penticton M55-59 63 6 0:23:49 04:45
90 Wendy Henly Kelowna F55-59 27 0:23:50 04:46
91 Ken Riegel Vernon M60-64 64 5 0:23:56 04:47
92 Peter Benson Naramata M70-74 65 0:23:57 04:47
93 Henry Proce Coldstream M60-64 66 6 0:23:58 04:47
94 Lisa Spalding Penticton F45-49 28 0:24:03 04:48
95 Jolene Sanderson Kelowna F20-29 29 6 0:24:07 04:49
96 Jack Wessel Oliver M65-69 67 4 0:24:10 04:50
97 Sean Kingston Kelowna M16-19 68 4 0:24:10 04:50
98 Paula Craig Kelowna F50-54 30 0:24:13 04:50
99 Melvin Doherty Kamloops M60-64 69 7 0:24:14 04:50
100 Jackie Stewart Penticton F60-64 31 0:24:19 04:51
101 Janice Bradshaw West Kelowna F45-49 32 0:24:22 04:52
102 James Palanio Penticton M45-49 70 7 0:24:26 04:53
103 Kon Oh Naramata M45-49 71 8 0:24:29 04:53
104 Diane Leonard Kelowna F65-69 33 0:24:29 04:53
105 Deb Lougheed Penticton F50-54 34 4 0:24:31 04:54
106 Marie Cormack Summerland F55-59 35 0:24:32 04:54
107 Brody Greggain West Kelowna M01-15 72 0:24:41 04:56
108 Therese Chickloski Penticton F50-54 36 5 0:24:43 04:56
109 Elena Selles Penticton F01-15 37 0:24:45 04:57
110 Jennifer Spencer Kelowna F30-34 38 7 0:24:46 04:57
111 Larry Green Summerland M55-59 73 7 0:24:47 04:57
112 Wendy Otto Peachland F40-44 39 5 0:24:48 04:57
113 Jessica O'Rourke West Kelowna F20-29 40 7 0:24:49 04:57
114 Bill Spill Kelowna M55-59 74 8 0:25:16 05:03
115 Tom Williamson Penticton M55-59 75 9 0:25:27 05:05
116 Markus Heinrichs Kelowna M50-54 76 8 0:25:28 05:05
117 Lyndsay O'Rourke Penticton F40-44 41 6 0:25:32 05:06
118 John Bosomworth Penticton M70-74 77 0:25:33 05:06
119 Drew Makepeace Penticton M45-49 78 9 0:25:34 05:06
120 Randy Cardno Penticton M50-54 79 9 0:25:35 05:07
121 Liz Borrett Kelowna F70-74 42 0:25:38 05:07
122 Maria Martakova Penticton F35-39 43 4 0:25:48 05:09
123 Paul Doyle Oliver M65-69 80 5 0:25:49 05:09
124 Janette Davies Naramata F40-44 44 7 0:25:50 05:10
125 Amanda Vandeweghe Penticton F50-54 45 6 0:25:51 05:10
126 Lisa Harrison Creston F40-44 46 8 0:25:58 05:11
127 Patrick Amundsen Summerland M55-59 81 10 0:25:59 05:11
128 Louis Stupar Kelowna M65-69 82 6 0:26:09 05:13
129 Charlotte Heidt Kelowna F60-64 47 0:26:16 05:15
130 Karen St-Martin Penticton F55-59 48 4 0:26:21 05:16
131 Monique Porter Summerland F35-39 49 5 0:26:25 05:17
132 Nancy Agassiz Vernon F60-64 50 0:26:30 05:18
133 Amie Holland Penticton F16-19 51 4 0:26:31 05:18
134 Colleen Stensrude Vernon F50-54 52 7 0:26:41 05:20
135 Tina Matheson Penticton F40-44 53 9 0:26:42 05:20
136 Jeremy Kroon Naramata M01-15 83 4 0:26:42 05:20
137 Susan Templin Kelowna F60-64 54 4 0:26:44 05:20
138 Mary Ellen Heidt Kaleden F60-64 55 5 0:26:48 05:21
139 Russell Moore Oliver M55-59 84 11 0:26:49 05:21
140 Lori Krahn Kelowna F35-39 56 6 0:26:55 05:23
141 Vanessa Mclean Oliver F40-44 57 10 0:26:56 05:23
142 Patricia Riegel Vernon F65-69 58 0:26:58 05:23
143 Siona Holomis Vernon F20-29 59 8 0:26:59 05:23
144 Meryn Sim Canoe F16-19 60 5 0:27:00 05:24
145 Trevor Bowland Penticton M16-19 85 5 0:27:00 05:24
146 Dennis Boon West Kelowna M65-69 86 7 0:27:01 05:24
147 Becky Williams Winfield F55-59 61 5 0:27:03 05:24
148 Sandra Wike Kelowna F55-59 62 6 0:27:18 05:27
149 Lisa Grey-Dreaper Penticton F40-44 63 11 0:27:23 05:28
150 Mikaela Klassen Peachland F16-19 64 6 0:27:24 05:28
151 Patti Benjamin Kelowna F45-49 65 0:27:39 05:31
152 Cole Borba Penticton M16-19 87 6 0:27:41 05:32
153 Elaine Reich Kelowna F45-49 66 4 0:27:43 05:32
154 Alan Clarke Penticton M55-59 88 12 0:27:45 05:33
155 Karl Martin Naramata M65-69 89 8 0:27:54 05:34
156 Aubrey Elliott West Kelowna M60-64 90 8 0:27:59 05:35
157 Allyson Hamilton Kelowna F30-34 67 8 0:27:59 05:35
158 Fern Fraser Kelowna F50-54 68 8 0:28:00 05:36
159 Matthew Leslie Coquitlam M20-29 91 6 0:28:03 05:36
160 Bill Fulton Summerland M55-59 92 13 0:28:12 05:38
161 Christa Kalinczuk Lake Country F35-39 69 7 0:28:13 05:38
162 Nico Carboni Penticton M16-19 93 7 0:28:14 05:38
163 Arnie Gash Okanagan Falls F65-69 70 0:28:20 05:40
164 Cheryl Hills Summerland F45-49 71 5 0:28:29 05:41
165 Gina Larsen Penticton F01-15 72 4 0:28:29 05:41
166 David Larsen Penticton M35-39 94 7 0:28:30 05:42
167 Jean Gemmell Penticton F60-64 73 6 0:28:31 05:42
168 Joy Peterson Penticton F45-49 74 6 0:28:32 05:42
169 Jodi Hansen Penticton F35-39 75 8 0:28:47 05:45
170 Lynda Sociedade Penticton F45-49 76 7 0:28:51 05:46
171 Hazel Clayton Kelowna F60-64 77 7 0:28:53 05:46
172 Kelly Long Oliver F35-39 78 9 0:28:55 05:47
173 Lillian Hunter North Vancouver F55-59 79 7 0:28:59 05:47
174 Olivia Carleton-Palanio Penticton F01-15 80 5 0:29:01 05:48
175 Andrew Smith Kelowna M50-54 95 10 0:29:03 05:48
176 Keith Bird Penticton M35-39 96 8 0:29:05 05:49
177 Karis Sommer Peachland F20-29 81 9 0:29:08 05:49
178 Linda Conrad Vernon F60-64 82 8 0:29:11 05:50
179 Rebecca Mclean Penticton F35-39 83 10 0:29:13 05:50
180 Lori Gordon Penticton F40-44 84 12 0:29:13 05:50
181 Claudel Lajeunesse Penticton F30-34 85 9 0:29:48 05:57
182 Colleen Hodge Penticton F50-54 86 9 0:29:49 05:57
183 Jen Hoy Penticton F20-29 87 10 0:29:54 05:58
184 Casandra Planedin Penticton F20-29 88 11 0:29:57 05:59
185 Anne Irwin Penticton F55-59 89 8 0:29:58 05:59
186 Carrick Donley Vernon M01-15 97 5 0:30:01 06:00
187 Anne Fitzpatrick Sicamous F55-59 90 9 0:30:04 06:00
188 Josee Bergeron Okanagan Falls F20-29 91 12 0:30:08 06:01
189 Anne Carroll Summerland F55-59 92 10 0:30:08 06:01
190 Haley Carey Kaleden F01-15 93 6 0:30:09 06:01
191 Brooke Scott Penticton F01-15 94 7 0:30:11 06:02
192 Chrissy Gadsby Penticton F30-34 95 10 0:30:19 06:03
193 Robert Kirkpatrick Penticton M60-64 98 9 0:30:21 06:04
194 Ryley Peterson Penticton M16-19 99 8 0:30:25 06:05
195 Kathryne Flannery Kamloops F55-59 96 11 0:30:29 06:05
196 Evelyn Luce Kamloops F35-39 97 11 0:30:31 06:06
197 Rich Sobkowich Kelowna M40-44 100 11 0:30:32 06:06
198 Lexie Laplante Summerland F20-29 98 13 0:30:34 06:06
199 Roland Laplante Penticton M60-64 101 10 0:30:35 06:07
200 Isaac Ellis Salmon Arm M01-15 102 6 0:30:43 06:08
201 Amber-Lee Watson Summerland F16-19 99 7 0:30:49 06:09
202 Sarah Porcellato Penticton F35-39 100 12 0:30:50 06:10
203 Bruno St-Martin Penticton M50-54 103 11 0:30:51 06:10
204 Monica Horning Penticton F30-34 101 11 0:30:57 06:11
205 Katharina Ernst Penticton F30-34 102 12 0:30:59 06:11
206 Hillary Davies Penticton F01-15 103 8 0:31:00 06:12
207 Maddy Davies Penticton F01-15 104 9 0:31:08 06:13
208 Gordon Rennie Oliver M70-74 104 4 0:31:09 06:13
209 Yifeng Kok Penticton M30-34 105 11 0:31:10 06:14
210 Emerlita Oamil Summerland F45-49 105 8 0:31:18 06:15
211 Tom Holland Penticton M65-69 106 9 0:31:20 06:16
212 Belinda Hiebert Kaleden F35-39 106 13 0:31:23 06:16
213 Nicola Hatt Penticton F20-29 107 14 0:31:23 06:16
214 Michelle Hatt Penticton F20-29 108 15 0:31:24 06:16
215 Kristi Walters Penticton F40-44 109 13 0:31:24 06:16
216 Alana Struthers Okanagan Falls F30-34 110 13 0:31:27 06:17
217 Dwight Gash Okanagan Falls M70-74 107 5 0:31:31 06:18
218 Kathleen Yanke Salmon Arm F65-69 111 4 0:31:44 06:20
219 Heidi Taman Penticton F40-44 112 14 0:31:47 06:21
220 Steve Heidt Kaleden M60-64 108 11 0:31:50 06:22
221 Patti Sloan Penticton F45-49 113 9 0:31:58 06:23
222 Daniel Jacyna Penticton M16-19 109 9 0:32:07 06:25
223 Brian Browne Penticton M55-59 110 14 0:32:08 06:25
224 Karen Willies Kamloops F65-69 114 5 0:32:11 06:26
225 Val Janzen Armstrong F60-64 115 9 0:32:16 06:27
226 Kim Finlayson Penticton F40-44 116 15 0:32:17 06:27
227 Nadia Wojcik Penticton F01-15 117 10 0:32:29 06:29
228 Jeff Wojcik Penticton M35-39 111 9 0:32:36 06:31
229 Anastasia Levant Oliver F16-19 118 8 0:32:37 06:31
230 Elizabeth Stokes Penticton F45-49 119 10 0:32:46 06:33
231 Kelly Bregeda West Kelowna F40-44 120 16 0:32:47 06:33
232 Colleen Tabata Kamloops F55-59 121 12 0:32:48 06:33
233 Haley Bowland Penticton F01-15 122 11 0:32:52 06:34
234 Terry Craig Penticton M45-49 112 10 0:32:55 06:35
235 Bruce Butcher Kamloops M75-79 113 0:33:15 06:39
236 Danuta Bialon Penticton F55-59 123 13 0:33:25 06:41
237 Barry Reid Penticton M60-64 114 12 0:33:26 06:41
238 Kelly Davies Penticton F40-44 124 17 0:33:32 06:42
239 Aaron Campbell Summerland M35-39 115 10 0:33:34 06:42
240 Brigette Petersen Penticton F35-39 125 14 0:33:49 06:45
241 Al Todd Penticton M65-69 116 10 0:33:50 06:46
242 Peggy Herd Kelowna F40-44 126 18 0:33:59 06:47
243 Trevor Herd Kelowna M40-44 117 12 0:33:59 06:47
244 Sue Abbott Vernon F65-69 127 6 0:34:02 06:48
245 Rick Jenkner Kamloops M55-59 118 15 0:34:02 06:48
246 Yvonne Stupar Kelowna F55-59 128 14 0:34:13 06:50
247 Miriam Mcfarlane Kamloops F50-54 129 10 0:34:19 06:51
248 Amanda Heyming Kelowna F30-34 130 14 0:34:21 06:52
249 Shannon Hoy West Kelowna F20-29 131 16 0:34:27 06:53
250 Allisha Luther Kelowna F30-34 132 15 0:34:36 06:55
251 Allison Van Ewyk Armstrong F50-54 133 11 0:34:39 06:55
252 Les Tabata Kamloops M55-59 119 16 0:34:51 06:58
253 Rhonda Greggain West Kelowna F50-54 134 12 0:34:53 06:58
254 Alexandria Frye Penticton F20-29 135 17 0:35:11 07:02
255 Jodie Asselin Kelowna F30-34 136 16 0:35:13 07:02
256 Robert Mayne Penticton M70-74 120 6 0:35:16 07:03
257 Kristy Rizk Hamilton F30-34 137 17 0:35:17 07:03
258 Patricia Leclercq Penticton F40-44 138 19 0:35:24 07:04
259 Ashley Parsons West Kelowna F20-29 139 18 0:35:25 07:05
260 Stacey Miller Kelowna F20-29 140 19 0:35:29 07:05
261 Erika Lavallee Penticton F30-34 141 18 0:35:31 07:06
262 Elaine Rodger Penticton F50-54 142 13 0:35:32 07:06
263 Bill Fuhrmeister Osoyoos M75-79 121 0:35:33 07:06
264 Gloria Larratt Armstrong F70-74 143 0:35:34 07:06
265 Monica Keetch Summerland F45-49 144 11 0:35:35 07:07
266 Kristina Caisutti Penticton F20-29 145 20 0:35:36 07:07
267 Shirley Cook Kaleden F55-59 146 15 0:35:51 07:10
268 Angie Vriends Penticton F20-29 147 21 0:35:54 07:10
269 Hailey Smith Penticton F01-15 148 12 0:36:00 07:12
270 Catherine Mclean Penticton F40-44 149 20 0:36:20 07:16
271 Julie Leduc Okanagan Falls F35-39 150 15 0:36:33 07:18
272 Jodi Bird Penticton F40-44 151 21 0:36:34 07:18
273 Diane Power-Jeans Penticton F45-49 152 12 0:36:49 07:21
274 Alexandria Jeans Penticton F20-29 153 22 0:36:50 07:22
275 Juanita Parsons Kelowna F40-44 154 22 0:37:04 07:24
276 Emma Teichroeb Westbank F20-29 155 23 0:37:13 07:26
277 Adriane Sobkowich Kelowna F35-39 156 16 0:37:58 07:35
278 Karen Spencer Penticton F50-54 157 14 0:38:13 07:38
279 Declan Donley Vernon M01-15 122 7 0:38:15 07:39
280 Tom Cook Kaleden M60-64 123 13 0:38:23 07:40
281 Aleriane Donley Vernon F01-15 158 13 0:38:36 07:43
282 Sean Donley Vernon M40-44 124 13 0:38:36 07:43
283 Stephanie Ostrander Kamloops F40-44 159 23 0:38:37 07:43
284 Samantha Cardinal Penticton F40-44 160 23 0:38:37 07:43
285 Lisa Moore Penticton F35-39 161 17 0:39:00 07:48
286 Tabitha Macfadyen Penticton F35-39 162 18 0:40:30 08:06
287 Diana Riley Vernon F40-44 163 25 0:40:33 08:06
288 Suzanne Mackenzie Penticton F50-54 164 15 0:41:11 08:14
289 Doreen Mayne Penticton F75-79 165 0:41:39 08:19
290 Constance Deane Vernon F50-54 166 16 0:42:19 08:27
291 Rita Nameth Penticton F45-49 167 13 0:42:28 08:29
292 Donna Mcbeth Penticton F55-59 168 16 0:42:30 08:30
293 Bonnie Cederholm Penticton F60-64 169 10 0:42:54 08:34
294 Henry Boas Penticton M75-79 125 0:43:00 08:36
295 Kim Benke Penticton F40-44 170 26 0:43:34 08:42
296 Jenny Neumann Penticton F55-59 171 17 0:43:43 08:44
297 Kathy Larsson Penticton F65-69 172 7 0:44:06 08:49
Missing or Incorrect Results